Regional Weather Roundup
Issued by NWS

Home | Current Version | Previous Version | Graphics & Text | Print | Product List | Glossary On
Versions: 1 2 3 4 5 6 7 8 9 10 11 12 13 14 15 16 17 18 19 20 21 22 23 24 25 26 27 28 29 30 31 32 33 34 35 36 37 38 39 40 41 42 43 44 45 46 47 48 49 50
000
ASUS43 KMPX 311610
RWRMN
WEATHER ROUNDUP FOR MINNESOTA
NATIONAL WEATHER SERVICE TWIN CITIES/CHANHASSEN MN
1100 AM CDT FRI JUL 31 2015


NOTE: "FAIR" INDICATES FEW OR NO CLOUDS BELOW 12,000 FEET WITH NO
SIGNIFICANT WEATHER AND/OR OBSTRUCTIONS TO VISIBILITY. N/A MEANS
CURRENT SKY AND/OR WEATHER CONDITIONS ARE NOT AVAILABLE.

MNZ060>063-068>070-311700-
   Twin Cities Metro

CITY           SKY/WX    TMP DP  RH WIND       PRES   REMARKS
TWIN CITIES    SUNNY     77  52  41 NW18G25   30.07F
ST PAUL        SUNNY     78  51  38 NW23G30   30.06F
CRYSTAL        SUNNY     78  52  40 NW16G25   30.06F
BLAINE         SUNNY     77  52  41 W14G21    30.06F
LAKEVILLE      SUNNY     75  55  50 W12G17    30.08F
EDEN PRAIRIE   SUNNY     78  54  43 W13G21    30.07F
SOUTH ST PAUL  SUNNY     78  48  34 NW16G22   30.06F
LAKE ELMO      FAIR      75  54  46 NW15G23   30.07S
$$
MNZ001>005-007-008-013>017-022>024-027-028-311700-
   Northwest Minnesota

CITY           SKY/WX    TMP DP  RH WIND       PRES   REMARKS
BEMIDJI        SUNNY     72  52  49 W17G25    30.04S
HALLOCK        SUNNY     73  54  49 NW15      30.02F
ROSEAU         SUNNY     72  59  64 W9G16     30.00F
WARROAD        SUNNY     72  59  64 W10G16    29.99F
THIEF RVR FALL SUNNY     72  54  53 W10G18    30.04F
CROOKSTON      SUNNY     73  55  53 NW17      30.06S
FOSSTON        SUNNY     72  55  56 W6G13     30.06F
DETROIT LAKES  SUNNY     72  54  53 NW9       30.11S
MOORHEAD       SUNNY     73  57  56 NW10      30.10S
PARK RAPIDS    SUNNY     74  53  48 W15       30.08S
MAHNOMEN       FAIR      71  55  57 W13G18    30.08F
$$
MNZ006-009>011-018-025>026-311700-
   North Central Minnesota

CITY           SKY/WX    TMP DP  RH WIND       PRES   REMARKS
BAUDETTE       MOSUNNY   70  56  61 NW16G22   29.98S
FLAG ISLAND    PTSUNNY   68  55  64 NW13G22   29.95S
INTL FALLS     PTSUNNY   69  58  67 NW15      29.95S
WASKISH        SUNNY     70  57  64 W12G20    30.00S
BIG FORK       SUNNY     73  55  53 W9G22     30.00S
LONGVILLE      SUNNY     73  54  49 W9        30.04S
GRAND RAPIDS   SUNNY     72  52  49 NW16G23   30.02S
CRANE LAKE     PTSUNNY   66  55  68 NW6G20    29.96S
ORR            MOSUNNY   72  52  49 W14G21    29.95S
COOK           MOSUNNY   70  54  56 W14G22    29.98S
WALKER         FAIR      72  52  50 W12G22    30.04S
$$
MNZ012-019>021-037-311700-
   Northeast Minnesota

CITY           SKY/WX    TMP DP  RH WIND       PRES   REMARKS
DULUTH         MOSUNNY   72  52  49 NW15      29.98S
ELY            PTSUNNY   66  52  59 NW15G25   29.95S
HIBBING        MOSUNNY   72  54  53 NW17G26   29.99S
EVELETH        SUNNY     72  54  53 W16G22    29.99S
DULUTH HARBOR  SUNNY     73  55  53 W17G28    29.97S
TWO HARBORS    MOSUNNY   75  57  53 W10G21    29.94S
SILVER BAY     MOSUNNY   73  52  46 W8        29.93R
GRAND MARAIS     N/A     70  52  52 NW8G17    29.88R
G MARAIS ARPRT   N/A     64  48  55 NW12      29.92R
$$
MNZ029>031-032-039>041-046>048-054>057-064-311700-
   West Central Minnesota

CITY           SKY/WX    TMP DP  RH WIND       PRES   REMARKS
FERGUS FALLS   SUNNY     72  57  60 NW6       30.10F
WHEATON        SUNNY     73  55  53 NW7       30.13F
MORRIS         SUNNY     75  57  53 NW10      30.11S
ALEXANDRIA     SUNNY     74  54  49 NW13      30.13S
ELBOW LAKE     FAIR      72  58  60 NW12      30.12S
WADENA         SUNNY     73  52  46 W10G17    30.09F
GLENWOOD       SUNNY     75  54  46 W15       30.12S
APPLETON       SUNNY     77  54  44 NW6       30.12S
BENSON         SUNNY     79  54  41 N8        30.12S
ORTONVILLE     SUNNY     75  55  50 NW8       30.13S
MADISON        SUNNY     79  54  41 NW6       30.13F
WILLMAR        FAIR      75  59  57 NW9       30.13S
$$
MNZ033>034-036-042>043-049>051-058-059-311700-
   Central Minnesota

CITY           SKY/WX    TMP DP  RH WIND       PRES   REMARKS
ST CLOUD       SUNNY     76  52  43 NW16      30.08S
SAUK CENTRE    FAIR      73  54  51 W10       30.11S
PAYNESVILLE    SUNNY     73  52  47 W12       30.11S
AITKIN         SUNNY     73  55  53 W7        30.03S
PINE RIVER     SUNNY     73  55  53 W9G17     30.08F
BRAINERD       SUNNY     73  52  47 NW18G24   30.06F
STAPLES        SUNNY     73  52  46 W14       30.08F
LONG PRAIRIE   FAIR      72  52  49 W13       30.10F
LITTLE FALLS   SUNNY     73  48  40 W13G24    30.08F
LITCHFIELD     SUNNY     75  55  50 NW9G18    30.11S
BUFFALO        SUNNY     76  51  40 NW12G21   30.09S
MAPLE LAKE     SUNNY     75  55  50 NW13      30.10S
$$
MNZ037-044-045-052-053-311700-
   East Central Minnesota

CITY           SKY/WX    TMP DP  RH WIND       PRES   REMARKS
PRINCETON      SUNNY     77  55  47 W14       30.07S
MORA           SUNNY     72  54  53 NW13G21   30.07S
CAMBRIDGE      SUNNY     77  57  50 W9G21     30.04S
RUSH CITY      SUNNY     74  54  50 NW9G17    30.05S
MOOSE LAKE     SUNNY     72  52  49 NW10G18   30.01R
HINCKLEY       FAIR      72  55  56 W14       30.04S
CLOQUET        MOSUNNY   72  50  46 W17G25    30.00S
MCGREGOR       SUNNY     72  52  49 W13G22    30.04S
$$
MNZ071>073-080-081-089-090-097-098-311700-
   Southwest Minnesota

CITY           SKY/WX    TMP DP  RH WIND       PRES   REMARKS
MONTEVIDEO     SUNNY     79  63  57 NW7       30.15S
GRANITE FALLS  SUNNY     75  61  62 W7        30.15S
CANBY          SUNNY     78  50  37 NW5       30.15F
MARSHALL       SUNNY     77  55  47 W8        30.16F
REDWOOD FALLS  SUNNY     77  55  46 W9        30.13S
OLIVIA         SUNNY     72  55  56 W12       30.12S
PIPESTONE      SUNNY     75  52  43 CALM      30.18S
WINDOM         SUNNY     77  54  44 CALM      30.16S
WORTHINGTON    SUNNY     75  54  46 N9        30.17S
JACKSON        SUNNY     77  55  47 N5        30.17S
TRACY          SUNNY     77  59  53 W5        30.16S
SLAYTON        SUNNY     78  52  39 CALM      30.18F HAZE
$$
MNZ065>067-074>077-082>085-091>093-311700-
   South Central Minnesota

CITY           SKY/WX    TMP DP  RH WIND       PRES   REMARKS
MANKATO        SUNNY     75  55  50 NW13      30.12S
NEW ULM        SUNNY     75  57  53 W8        30.12F
ST JAMES       SUNNY     79  57  47 W8        30.15S
FAIRMONT       SUNNY     75  54  46 NW8       30.14S
GLENCOE        SUNNY     77  58  52 NW13      30.10S
FARIBAULT      SUNNY     73  55  53 W13       30.11S
OWATONNA       SUNNY     75  55  50 W13       30.11F
WASECA         SUNNY     73  55  53 NW9       30.13S
ALBERT LEA     SUNNY     73  55  53 NW5       30.13S
$$
MNZ078>079-086>088-094>096-311700-
   Southeast Minnesota

CITY           SKY/WX    TMP DP  RH WIND       PRES   REMARKS
ROCHESTER      SUNNY     74  56  53 NW15      30.11S
RED WING       SUNNY     79  50  36 NW15G22   30.05S
STANTON        SUNNY     76  56  50 W10G18    30.08S
DODGE CENTER   SUNNY     73  54  49 NW15      30.11S
WINONA         SUNNY     77  52  41 NW13G20   30.06S
AUSTIN         SUNNY     75  54  46 NW15      30.12S
PRESTON        SUNNY     73  52  46 NW13G18   30.11S
$$
ABBREVIATIONS USED IN REMARKS
   TC - TEMPERATURES IN CELSIUS
  WCI - WIND CHILL INDEX
   HX - HEAT INDEX
  VSB - VISIBILITY
$$



USA.gov is the U.S. government's official web portal to all federal, state and local government web resources and services.